[[{"header":{"parameterUnit":"m.s-1","parameterCategory":1,"la1":30.2991,"la2":30.254,"lo1":-89.0895,"lo2":-89.0444,"dy":0.0017,"dx":0.0017,"nx":28,"ny":28,"refTime":"2025-04-08T03:00:00:Z","depth":0,"parameterNumber":2,"parameterNumberName":"U-component_of_WINDS"},"data":[0,0,0,0,0,0,0,0,0,0,0,0,0,0,0,0,0,0,0,0,0,0,0,0,0,0,0,0,0,0,0,0,0,0,0,0,0,0,0,0,0,0,0,0,0,0,0,0,0,0,0,0,0,0,0,0,0,0,-2.2552,-2.2552,0,-2.2606,-2.2607,-2.2607,-2.2518,-2.2515,-2.2511,-2.2509,-2.2566,-2.2571,-2.2575,0,0,0,0,0,0,0,0,0,0,0,0,0,-2.237,-2.2374,-2.2552,-2.2552,-2.2553,-2.2606,-2.2607,-2.2608,-2.2518,-2.2514,-2.2511,-2.2507,-2.2565,-2.257,-2.2575,0,0,0,0,0,0,0,0,0,0,0,0,0,-2.2439,-2.2375,-2.2552,-2.2515,-2.2512,-2.2606,-2.2607,-2.2608,-2.2519,-2.2514,-2.251,-2.2505,-2.2563,-2.257,-2.2576,-2.2709,0,0,-2.2596,-2.2599,0,0,0,0,0,0,0,0,-2.2435,-2.2446,-2.252,-2.2518,-2.2515,-2.255,-2.2564,-2.2642,-2.252,-2.2516,-2.2509,-2.2503,-2.2565,-2.2571,-2.2591,-2.2712,-2.2714,-2.2597,-2.2601,-2.2604,-2.2606,0,0,0,0,0,0,0,-2.2431,-2.2443,-2.2573,-2.2521,-2.2518,-2.2495,-2.25,-2.2578,-2.2566,-2.2516,-2.251,-2.2518,-2.2563,-2.2585,-2.2592,-2.2715,-2.2597,-2.2603,-2.2607,-2.2609,-2.2944,-2.2948,0,0,0,0,0,0,-2.243,-2.244,-2.2572,-2.2575,-2.2463,-2.2502,-2.2508,-2.2544,-2.2565,-2.2564,-2.2521,-2.2513,-2.2576,-2.2585,-2.2594,-2.2749,-2.2604,-2.261,-2.2614,-2.2939,-2.2945,-2.295,0,0,0,0,0,0,-2.2427,-2.2443,-2.2569,-2.2506,-2.252,-2.251,-2.2551,-2.2547,-2.257,-2.2569,-2.2566,-2.2547,-2.2573,-2.2585,-2.268,-2.275,-2.2613,-2.2619,-2.2933,-2.2941,-2.2948,-2.3062,0,0,0,0,0,0,-2.2422,-2.2442,-2.2493,-2.2507,-2.2524,-2.2656,-2.2556,-2.2552,-2.2581,-2.2571,-2.2592,-2.2591,-2.257,-2.2671,-2.2687,-2.2756,-2.2624,-2.2927,-2.2937,-2.2945,-2.3052,-2.3072,-2.3089,0,0,0,0,0,-2.2416,-2.2524,-2.2496,-2.2513,-2.2587,-2.266,-2.2669,-2.2643,-2.2587,-2.2638,-2.2636,-2.259,-2.2739,-2.2681,-2.2699,-2.2771,-2.2922,-2.2934,-2.2945,-2.3043,-2.3068,-2.3089,0,0,0,0,0,0,-2.252,-2.2526,-2.2494,-2.2611,-2.2635,-2.2644,-2.2708,-2.267,-2.2712,-2.2701,-2.2666,-2.2672,-2.2774,-2.2782,-2.2717,-2.2899,-2.2821,-2.2837,-2.2891,-2.2914,-2.2933,-2.2929,-2.2629,0,0,0,0,0,-2.2556,-2.2615,-2.2616,-2.2719,-2.2732,-2.2718,-2.2749,-2.2726,-2.275,-2.2761,-2.2766,-2.2792,-2.2844,-2.288,-2.2928,-2.3052,-2.3054,-2.311,-2.3129,-2.3144,-2.3158,-2.3221,-2.3246,-2.2987,-2.2987,-2.2986,0,0,-2.2632,-2.2642,-2.2682,-2.274,-2.2756,-2.2817,-2.2728,-2.2797,-2.2841,-2.2771,-2.2861,-2.2866,-2.2892,-2.3002,-2.3051,-2.3012,-2.3229,-2.3159,-2.3171,-2.3176,-2.3235,-2.326,-2.3282,-2.2994,-2.2993,-2.2992,0,0,-2.2802,-2.2816,-2.2901,-2.2919,-2.2944,-2.2933,-2.2954,-2.2968,-2.2968,-2.3057,-2.3005,-2.3058,-2.3149,-2.3169,-2.3191,-2.3364,-2.3322,-2.3381,-2.348,-2.3542,-2.3563,-2.358,-2.3641,-2.3663,-2.3394,-2.3395,-2.3395,0,-2.2894,-2.2983,-2.2951,-2.3022,-2.3048,-2.2986,-2.3071,-2.309,-2.313,-2.315,-2.3105,-2.3216,-2.323,-2.3342,-2.3384,-2.3404,-2.3426,-2.3379,-2.3562,-2.358,-2.3596,-2.3653,-2.3676,-2.3401,-2.3401,-2.34,-2.3399,0,-2.3093,-2.3156,-2.3222,-2.326,-2.3293,-2.3372,-2.3351,-2.3389,-2.3362,-2.3356,-2.3446,-2.3459,-2.3508,-2.3533,-2.3509,-2.3641,-2.3616,-2.3568,-2.3489,-2.3628,-2.3681,-2.3702,-2.3411,-2.3409,-2.3407,-2.3405,0,0,-2.3332,-2.3349,-2.3374,-2.3389,-2.341,-2.3458,-2.3532,-2.3578,-2.3611,-2.364,-2.37,-2.3778,-2.3732,-2.3757,-2.3734,-2.3789,-2.3922,-2.3733,-2.3733,-2.3767,-2.4067,-2.4102,-2.4128,-2.3894,-2.3898,-2.3902,-2.4064,0,-2.3499,-2.3627,-2.3599,-2.3724,-2.378,-2.372,-2.3785,-2.3805,-2.38,-2.3847,-2.3841,-2.3896,-2.3832,-2.3847,-2.3898,-2.3895,-2.3982,-2.3883,-2.395,-2.3953,-2.3945,-2.4156,-2.4195,-2.4347,-2.4084,-2.4088,-2.4091,0,-2.3712,-2.3747,-2.3878,-2.3887,-2.3909,-2.3968,-2.4006,-2.4052,-2.4072,-2.4065,-2.4091,-2.4056,-2.4129,-2.4049,-2.4148,-2.4081,-2.4106,-2.4109,-2.4114,-2.4119,-2.403,-2.4166,-2.4396,-2.4418,-2.4123,-2.412,-2.4118,0,-2.3871,-2.3951,-2.4038,-2.4054,-2.4067,-2.4109,-2.4117,-2.4133,-2.4161,-2.4195,-2.4212,-2.4255,-2.4278,-2.4311,-2.4288,-2.4232,-2.439,-2.4308,-2.4384,-2.4385,-2.4421,-2.4419,-2.4657,-2.4439,-2.4438,-2.4438,-2.4437,0,-2.406,-2.4143,-2.4109,-2.4164,-2.4253,-2.4219,-2.4308,-2.4309,-2.4323,-2.4375,-2.4326,-2.4377,-2.4344,-2.4391,-2.4373,-2.4456,-2.4468,-2.4463,-2.4457,-2.4467,-2.4467,-2.4483,-2.4471,-2.4444,-2.4443,-2.4441,-2.444,0,-2.4254,-2.4235,-2.4326,-2.4331,-2.4333,-2.4399,-2.4402,-2.4452,-2.4442,-2.4509,-2.4523,-2.4508,-2.4561,-2.4541,-2.4598,-2.4586,-2.4691,-2.4673,-2.4685,-2.4679,-2.4756,-2.4749,-2.5012,-2.5044,-2.4806,-2.4809,-2.4811,0,-2.4375,-2.4437,-2.4447,-2.4477,-2.4488,-2.4539,-2.4567,-2.4535,-2.4566,-2.4592,-2.4638,-2.4686,-2.4723,-2.481,-2.4804,-2.4847,-2.4827,-2.4917,-2.4834,-2.484,-2.4827,-2.4823,-2.4828,-2.4933,-2.4936,-2.4938,-2.494,0,-2.4593,-2.458,-2.4622,-2.466,-2.4694,-2.4723,-2.4747,-2.4776,-2.4745,-2.4782,-2.4834,-2.4863,-2.4919,-2.4967,-2.5004,-2.5011,-2.4971,-2.4966,-2.4986,-2.4996,-2.5,-2.4997,-2.4729,-2.496,-2.4958,-2.4957,-2.4956,-2.4955,-2.4753,-2.4804,-2.4817,-2.4865,-2.4879,-2.4903,-2.4948,-2.4943,-2.4986,-2.5029,-2.5007,-2.5068,-2.5084,-2.5129,-2.5142,-2.5188,-2.5153,-2.5182,-2.5189,-2.5197,-2.5206,-2.4993,-2.5195,-2.5194,-2.5194,-2.5193,-2.5193,0,-2.4967,-2.4972,-2.5016,-2.505,-2.5087,-2.5044,-2.5068,-2.5102,-2.5155,-2.5173,-2.5209,-2.5268,-2.5313,-2.531,-2.5352,-2.5389,-2.5371,-2.5401,-2.5397,-2.5399,-2.5235,-2.5213,-2.5414,-2.5414,-2.5414,-2.5414,-2.5414,-2.5414,-2.5082,-2.5164,-2.5152,-2.524,-2.5245,-2.5303,-2.532,-2.534,-2.5354,-2.5422,-2.5458,-2.5455,-2.5464,-2.5505,-2.5544,-2.5542,-2.5559,-2.5595,-2.5586,-2.5433,-2.5411,-2.539,-2.5369,-2.56,-2.56,-2.5746,-2.5747,-2.5748]},{"header":{"parameterUnit":"m.s-1","parameterCategory":1,"la1":30.2991,"la2":30.254,"lo1":-89.0895,"lo2":-89.0444,"dy":0.0017,"dx":0.0017,"nx":28,"ny":28,"refTime":"2025-04-08T03:00:00:Z","depth":0,"parameterNumber":3,"parameterNumberName":"V-component_of_WINDS"},"data":[0,0,0,0,0,0,0,0,0,0,0,0,0,0,0,0,0,0,0,0,0,0,0,0,0,0,0,0,0,0,0,0,0,0,0,0,0,0,0,0,0,0,0,0,0,0,0,0,0,0,0,0,0,0,0,0,0,0,-3.8302,-3.8303,0,-3.8401,-3.8402,-3.8403,-3.8382,-3.838,-3.8378,-3.8377,-3.8476,-3.848,-3.8484,0,0,0,0,0,0,0,0,0,0,0,0,0,-3.8089,-3.8093,-3.8301,-3.8303,-3.8304,-3.8401,-3.8402,-3.8403,-3.8382,-3.838,-3.8378,-3.8376,-3.8474,-3.848,-3.8485,0,0,0,0,0,0,0,0,0,0,0,0,0,-3.8184,-3.8094,-3.8301,-3.8305,-3.8307,-3.84,-3.8402,-3.8404,-3.8383,-3.838,-3.8377,-3.8375,-3.8473,-3.8479,-3.8486,-3.8581,0,0,-3.8505,-3.8508,0,0,0,0,0,0,0,0,-3.8178,-3.8192,-3.8303,-3.8305,-3.8307,-3.8376,-3.8363,-3.8463,-3.8383,-3.8354,-3.8377,-3.8373,-3.8445,-3.8453,-3.8478,-3.8586,-3.859,-3.8506,-3.851,-3.8513,-3.8515,0,0,0,0,0,0,0,-3.8172,-3.8187,-3.8341,-3.8305,-3.8307,-3.83,-3.8311,-3.8382,-3.8413,-3.8356,-3.8355,-3.8367,-3.8445,-3.8472,-3.848,-3.8591,-3.8506,-3.8512,-3.8516,-3.8518,-3.8778,-3.8781,0,0,0,0,0,0,-3.8164,-3.8182,-3.8338,-3.8344,-3.8235,-3.8306,-3.8318,-3.8357,-3.8413,-3.8419,-3.8369,-3.8366,-3.8462,-3.8473,-3.8484,-3.8596,-3.8513,-3.8519,-3.8523,-3.8775,-3.8779,-3.8782,0,0,0,0,0,0,-3.816,-3.8178,-3.8334,-3.8263,-3.8282,-3.8313,-3.8356,-3.836,-3.8387,-3.8423,-3.8428,-3.8391,-3.846,-3.8474,-3.8556,-3.86,-3.8522,-3.8528,-3.8771,-3.8776,-3.878,-3.8824,0,0,0,0,0,0,-3.8154,-3.8177,-3.8215,-3.8264,-3.8286,-3.8406,-3.8359,-3.8364,-3.8398,-3.8395,-3.8444,-3.845,-3.8459,-3.8547,-3.8563,-3.8607,-3.8533,-3.8768,-3.8773,-3.8779,-3.8819,-3.883,-3.8839,0,0,0,0,0,-3.8146,-3.8224,-3.8217,-3.8236,-3.8334,-3.8409,-3.8421,-3.8431,-3.8402,-3.8439,-3.8462,-3.8448,-3.8592,-3.8555,-3.8573,-3.862,-3.8765,-3.8772,-3.8778,-3.8815,-3.8828,-3.8839,0,0,0,0,0,0,-3.818,-3.823,-3.8223,-3.8319,-3.836,-3.8405,-3.8453,-3.8445,-3.8494,-3.8488,-3.8498,-3.8509,-3.8591,-3.8614,-3.8572,-3.8713,-3.8674,-3.8685,-3.8696,-3.8708,-3.8718,-3.871,-3.8538,0,0,0,0,0,-3.8198,-3.8256,-3.8297,-3.8377,-3.8398,-3.8422,-3.8455,-3.8458,-3.85,-3.8517,-3.8546,-3.8586,-3.864,-3.8676,-3.8728,-3.8822,-3.8831,-3.8863,-3.8873,-3.8881,-3.889,-3.8938,-3.8952,-3.8804,-3.8804,-3.8804,0,0,-3.8237,-3.8272,-3.8308,-3.8384,-3.8416,-3.8474,-3.8436,-3.85,-3.8542,-3.8527,-3.8605,-3.8627,-3.8673,-3.876,-3.88,-3.8782,-3.8932,-3.889,-3.8896,-3.89,-3.8946,-3.896,-3.8972,-3.8808,-3.8807,-3.8807,0,0,-3.8337,-3.837,-3.8439,-3.8471,-3.852,-3.8535,-3.8551,-3.8597,-3.8611,-3.869,-3.8679,-3.8728,-3.8822,-3.8854,-3.8882,-3.899,-3.8979,-3.9007,-3.9058,-3.9105,-3.9117,-3.9127,-3.9163,-3.9176,-3.9016,-3.9016,-3.9016,0,-3.8378,-3.8466,-3.8475,-3.8539,-3.8572,-3.856,-3.8629,-3.8659,-3.8722,-3.8744,-3.8722,-3.8837,-3.8868,-3.8961,-3.8987,-3.9011,-3.9028,-3.9001,-3.9114,-3.9125,-3.9134,-3.9169,-3.9182,-3.9019,-3.9018,-3.9018,-3.9018,0,-3.8513,-3.8574,-3.8624,-3.8684,-3.8722,-3.8788,-3.8805,-3.8843,-3.8842,-3.8859,-3.8937,-3.8973,-3.903,-3.9052,-3.9053,-3.9145,-3.9131,-3.9112,-3.9073,-3.9151,-3.9183,-3.9197,-3.9023,-3.9022,-3.9021,-3.902,0,0,-3.8638,-3.8701,-3.8719,-3.8744,-3.8796,-3.8842,-3.8906,-3.8962,-3.8992,-3.9035,-3.9087,-3.9165,-3.9147,-3.9179,-3.9183,-3.9224,-3.9303,-3.9199,-3.92,-3.9215,-3.9403,-3.9416,-3.9431,-3.9296,-3.9299,-3.9301,-3.9398,0,-3.8741,-3.8854,-3.8863,-3.8964,-3.9018,-3.9007,-3.9062,-3.9098,-3.9114,-3.9161,-3.9179,-3.9233,-3.9206,-3.9225,-3.9265,-3.9285,-3.9341,-3.9279,-3.9342,-3.9345,-3.933,-3.9448,-3.9463,-3.9553,-3.9411,-3.9413,-3.9415,0,-3.8876,-3.8922,-3.9029,-3.9069,-3.9092,-3.9142,-3.9192,-3.9238,-3.9277,-3.9286,-3.932,-3.9318,-3.938,-3.9339,-3.9424,-3.9382,-3.9408,-3.9421,-3.9425,-3.943,-3.9384,-3.9455,-3.9583,-3.9595,-3.9435,-3.9434,-3.9432,0,-3.8953,-3.9042,-3.9116,-3.9139,-3.9189,-3.9223,-3.9245,-3.9282,-3.9314,-3.9358,-3.9378,-3.9428,-3.9455,-3.9493,-3.9503,-3.9473,-3.9587,-3.9547,-3.9594,-3.9593,-3.9618,-3.9616,-3.975,-3.9638,-3.9638,-3.9637,-3.9637,0,-3.9066,-3.9131,-3.9151,-3.9197,-3.9268,-3.9276,-3.9346,-3.9366,-3.9398,-3.9446,-3.9439,-3.9483,-3.9495,-3.9541,-3.9549,-3.9616,-3.9629,-3.9636,-3.9637,-3.9636,-3.9634,-3.9652,-3.9645,-3.9641,-3.964,-3.9639,-3.9639,0,-3.9164,-3.918,-3.926,-3.93,-3.9311,-3.9362,-3.9395,-3.9437,-3.9452,-3.9512,-3.9526,-3.9549,-3.9602,-3.9616,-3.968,-3.9685,-3.9764,-3.976,-3.9751,-3.975,-3.9795,-3.9789,-3.9943,-3.9963,-3.984,-3.9841,-3.9842,0,-3.9234,-3.9283,-3.9328,-3.9359,-3.9383,-3.9434,-3.9466,-3.9475,-3.9508,-3.9555,-3.9591,-3.9644,-3.9686,-3.9771,-3.9792,-3.984,-3.9836,-3.9887,-3.9843,-3.9839,-3.9834,-3.983,-3.9833,-3.9894,-3.9896,-3.9897,-3.9898,0,-3.9356,-3.936,-3.9408,-3.9457,-3.9495,-3.9534,-3.9571,-3.9597,-3.9611,-3.9648,-3.9702,-3.9735,-3.9799,-3.985,-3.9898,-3.9919,-3.991,-3.9911,-3.9924,-3.9922,-3.9914,-3.9916,-3.9771,-3.9907,-3.9906,-3.9906,-3.9905,-3.9905,-3.944,-3.9482,-3.9519,-3.9571,-3.9599,-3.9634,-3.9675,-3.9694,-3.9739,-3.9792,-3.9794,-3.9853,-3.9887,-3.9951,-3.9974,-4.0018,-4.0003,-4.0022,-4.0026,-4.0031,-4.0033,-3.9908,-4.0027,-4.0027,-4.0027,-4.0026,-4.0026,0,-3.9559,-3.9582,-3.9629,-3.9681,-3.9721,-3.9709,-3.9749,-3.9782,-3.9834,-3.9867,-3.9908,-3.9969,-4.0018,-4.0042,-4.0089,-4.012,-4.0117,-4.0132,-4.0129,-4.0133,-4.0046,-4.0029,-4.0134,-4.0134,-4.0134,-4.0134,-4.0134,-4.0134,-3.9626,-3.9695,-3.9704,-3.9787,-3.9808,-3.9866,-3.9889,-3.9919,-3.9946,-4.0014,-4.0054,-4.0069,-4.0098,-4.0147,-4.0191,-4.0196,-4.0213,-4.023,-4.0233,-4.0151,-4.014,-4.0129,-4.0113,-4.0234,-4.0234,-4.0317,-4.0318,-4.0318]}]]